[[{"header":{"parameterUnit":"m.s-1","parameterCategory":1,"la1":30.2991,"la2":30.254,"lo1":-89.0895,"lo2":-89.0444,"dy":0.0017,"dx":0.0017,"nx":28,"ny":28,"refTime":"2024-12-25T09:00:00:Z","depth":0,"parameterNumber":2,"parameterNumberName":"U-component_of_WINDS"},"data":[0,0,0,0,0,0,0,0,0,0,0,0,0,0,0,0,0,0,0,0,0,0,0,0,0,0,0,0,0,0,0,0,0,0,0,0,0,0,0,0,0,0,0,0,0,0,0,0,0,0,0,0,0,0,0,0,0,0,-4.817,-4.817,0,-4.8176,-4.8176,-4.8176,-4.8006,-4.8001,-4.7997,-4.7992,-4.8003,-4.8007,-4.8011,0,0,0,0,0,0,0,0,0,0,0,0,0,-4.8015,-4.8019,-4.817,-4.817,-4.817,-4.8176,-4.8176,-4.8176,-4.8007,-4.8001,-4.7996,-4.799,-4.8001,-4.8006,-4.8012,0,0,0,0,0,0,0,0,0,0,0,0,0,-4.8058,-4.802,-4.817,-4.8086,-4.8079,-4.8176,-4.8176,-4.8176,-4.8008,-4.8001,-4.7994,-4.7988,-4.7999,-4.8006,-4.8013,-4.8192,0,0,-4.8033,-4.8036,0,0,0,0,0,0,0,0,-4.8056,-4.8064,-4.8098,-4.8092,-4.8084,-4.8083,-4.8125,-4.8182,-4.801,-4.8035,-4.7992,-4.7984,-4.8035,-4.8039,-4.8055,-4.8192,-4.8192,-4.8034,-4.8038,-4.8041,-4.8043,0,0,0,0,0,0,0,-4.8053,-4.8063,-4.8172,-4.8099,-4.809,-4.8049,-4.8048,-4.8135,-4.8074,-4.8032,-4.802,-4.8023,-4.803,-4.8049,-4.8054,-4.8193,-4.8034,-4.804,-4.8044,-4.8047,-4.8478,-4.8485,0,0,0,0,0,0,-4.8061,-4.8061,-4.8172,-4.8173,-4.8053,-4.8058,-4.8056,-4.809,-4.8072,-4.8063,-4.8028,-4.8015,-4.804,-4.8046,-4.8054,-4.8262,-4.8041,-4.8047,-4.8051,-4.847,-4.8479,-4.8487,0,0,0,0,0,0,-4.8058,-4.8072,-4.8172,-4.8114,-4.8123,-4.8068,-4.8108,-4.8094,-4.8113,-4.8069,-4.8058,-4.8059,-4.8035,-4.8044,-4.8158,-4.826,-4.805,-4.8056,-4.8462,-4.8473,-4.8483,-4.8681,0,0,0,0,0,0,-4.8055,-4.8072,-4.8139,-4.8116,-4.8127,-4.8276,-4.8114,-4.8099,-4.8124,-4.8106,-4.8095,-4.8086,-4.8031,-4.8149,-4.8165,-4.8266,-4.8062,-4.8452,-4.8467,-4.848,-4.8666,-4.8698,-4.8726,0,0,0,0,0,-4.805,-4.8196,-4.8143,-4.8158,-4.8209,-4.8282,-4.8289,-4.8221,-4.8133,-4.82,-4.8172,-4.8087,-4.8246,-4.8162,-4.8179,-4.8283,-4.8445,-4.8463,-4.8479,-4.8652,-4.8692,-4.8725,0,0,0,0,0,0,-4.8233,-4.8191,-4.8133,-4.8275,-4.8284,-4.8254,-4.8336,-4.8265,-4.8299,-4.8281,-4.8196,-4.8195,-4.8323,-4.8314,-4.8221,-4.8456,-4.8331,-4.8351,-4.8457,-4.8494,-4.8523,-4.8523,-4.8067,0,0,0,0,0,-4.829,-4.8352,-4.8312,-4.8442,-4.8449,-4.8393,-4.8422,-4.8369,-4.8374,-4.8378,-4.8358,-4.8368,-4.842,-4.8456,-4.8502,-4.8663,-4.8659,-4.8743,-4.8773,-4.8798,-4.8817,-4.8903,-4.894,-4.8542,-4.8541,-4.8541,0,0,-4.8409,-4.8393,-4.8438,-4.8479,-4.8479,-4.8546,-4.8397,-4.8474,-4.8524,-4.8389,-4.8496,-4.8483,-4.8488,-4.8627,-4.8687,-4.8623,-4.8926,-4.8819,-4.8839,-4.8845,-4.8924,-4.8961,-4.8995,-4.8553,-4.8551,-4.8549,0,0,-4.8659,-4.8653,-4.8761,-4.8764,-4.8766,-4.8727,-4.8753,-4.8734,-4.8719,-4.8825,-4.8725,-4.8784,-4.8875,-4.8883,-4.89,-4.9154,-4.9076,-4.9171,-4.9328,-4.9412,-4.9444,-4.9471,-4.9563,-4.9596,-4.919,-4.9191,-4.9191,0,-4.8807,-4.8903,-4.8826,-4.891,-4.8931,-4.8812,-4.8921,-4.8928,-4.8945,-4.8963,-4.8891,-4.9004,-4.8999,-4.9139,-4.9201,-4.9217,-4.9245,-4.9172,-4.9445,-4.9472,-4.9497,-4.9583,-4.9617,-4.9202,-4.9201,-4.92,-4.9199,0,-4.9085,-4.9153,-4.924,-4.9259,-4.929,-4.9386,-4.9325,-4.9366,-4.931,-4.928,-4.9389,-4.9379,-4.9421,-4.945,-4.9396,-4.9582,-4.9543,-4.946,-4.9332,-4.9547,-4.9627,-4.9659,-4.9219,-4.9215,-4.9211,-4.9208,0,0,-4.9451,-4.9426,-4.9459,-4.9466,-4.9459,-4.9511,-4.9603,-4.9642,-4.968,-4.9696,-4.9771,-4.9852,-4.9775,-4.9793,-4.974,-4.9814,-5.0017,-4.9721,-4.972,-4.9777,-5.0222,-5.0285,-5.0324,-4.9965,-4.9971,-4.9976,-5.0222,0,-4.9695,-4.9848,-4.9782,-4.9943,-5.0005,-4.9893,-4.9972,-4.9978,-4.9952,-5.0002,-4.9974,-5.0032,-4.9926,-4.9936,-5.0004,-4.9978,-5.0105,-4.9959,-5.0036,-5.0039,-5.0038,-5.0366,-5.0433,-5.0665,-5.0252,-5.0257,-5.0261,0,-5.0,-5.0027,-5.0195,-5.0176,-5.02,-5.0273,-5.0304,-5.0354,-5.0358,-5.0334,-5.0355,-5.0285,-5.0374,-5.0248,-5.037,-5.0273,-5.03,-5.0292,-5.0299,-5.0304,-5.0164,-5.0381,-5.0737,-5.0773,-5.0309,-5.0305,-5.0302,0,-5.0252,-5.0331,-5.044,-5.045,-5.0432,-5.0486,-5.0481,-5.0478,-5.0506,-5.0534,-5.0552,-5.059,-5.0612,-5.0644,-5.0587,-5.0499,-5.0718,-5.0586,-5.0702,-5.0704,-5.0754,-5.0751,-5.1121,-5.0771,-5.077,-5.077,-5.0769,0,-5.0531,-5.0638,-5.0553,-5.0622,-5.0738,-5.0661,-5.0779,-5.0762,-5.076,-5.0824,-5.0729,-5.0791,-5.0711,-5.0766,-5.0722,-5.0831,-5.0841,-5.0825,-5.0812,-5.0834,-5.0836,-5.0851,-5.0834,-5.0779,-5.0777,-5.0775,-5.0773,0,-5.0832,-5.078,-5.0892,-5.0866,-5.0861,-5.0949,-5.0926,-5.0989,-5.0956,-5.1038,-5.1052,-5.1002,-5.1061,-5.1007,-5.1064,-5.1034,-5.118,-5.1144,-5.1179,-5.1169,-5.1288,-5.1278,-5.168,-5.1729,-5.1348,-5.1351,-5.1354,0,-5.1014,-5.1093,-5.1075,-5.111,-5.1111,-5.1169,-5.1197,-5.1124,-5.1158,-5.1168,-5.123,-5.1281,-5.1318,-5.1419,-5.1388,-5.1431,-5.1395,-5.1533,-5.1401,-5.1421,-5.1398,-5.1395,-5.1403,-5.1561,-5.1565,-5.1569,-5.1572,0,-5.1343,-5.1313,-5.1356,-5.1392,-5.1428,-5.1452,-5.1469,-5.1504,-5.1429,-5.1472,-5.1531,-5.156,-5.1617,-5.167,-5.1703,-5.1699,-5.1625,-5.1614,-5.1643,-5.1666,-5.1684,-5.1676,-5.1253,-5.1605,-5.1602,-5.1599,-5.1597,-5.1596,-5.159,-5.1656,-5.1653,-5.1705,-5.171,-5.1728,-5.1786,-5.176,-5.1807,-5.1848,-5.1802,-5.1875,-5.1877,-5.1914,-5.1919,-5.1976,-5.1918,-5.196,-5.1971,-5.1983,-5.2,-5.1674,-5.1982,-5.1981,-5.198,-5.1979,-5.1978,0,-5.1915,-5.1907,-5.1956,-5.1982,-5.2024,-5.1948,-5.1963,-5.2003,-5.2067,-5.2075,-5.2114,-5.2182,-5.2233,-5.2206,-5.2249,-5.23,-5.2267,-5.2314,-5.231,-5.231,-5.2049,-5.202,-5.234,-5.234,-5.234,-5.234,-5.234,-5.234,-5.2088,-5.2195,-5.2165,-5.2274,-5.2266,-5.2335,-5.2351,-5.2368,-5.2373,-5.2454,-5.2495,-5.2476,-5.2471,-5.2513,-5.2557,-5.2547,-5.2569,-5.2629,-5.2608,-5.2364,-5.2329,-5.2295,-5.2267,-5.2634,-5.2634,-5.2864,-5.2866,-5.2868]},{"header":{"parameterUnit":"m.s-1","parameterCategory":1,"la1":30.2991,"la2":30.254,"lo1":-89.0895,"lo2":-89.0444,"dy":0.0017,"dx":0.0017,"nx":28,"ny":28,"refTime":"2024-12-25T09:00:00:Z","depth":0,"parameterNumber":3,"parameterNumberName":"V-component_of_WINDS"},"data":[0,0,0,0,0,0,0,0,0,0,0,0,0,0,0,0,0,0,0,0,0,0,0,0,0,0,0,0,0,0,0,0,0,0,0,0,0,0,0,0,0,0,0,0,0,0,0,0,0,0,0,0,0,0,0,0,0,0,-2.1525,-2.1526,0,-2.1591,-2.1592,-2.1593,-2.1586,-2.1585,-2.1584,-2.1583,-2.1649,-2.1652,-2.1655,0,0,0,0,0,0,0,0,0,0,0,0,0,-2.1391,-2.1393,-2.1525,-2.1526,-2.1527,-2.1591,-2.1592,-2.1593,-2.1587,-2.1585,-2.1584,-2.1583,-2.1648,-2.1652,-2.1655,0,0,0,0,0,0,0,0,0,0,0,0,0,-2.1452,-2.1394,-2.1525,-2.1531,-2.1533,-2.1591,-2.1592,-2.1593,-2.1587,-2.1585,-2.1584,-2.1582,-2.1647,-2.1651,-2.1655,-2.1711,0,0,-2.1668,-2.1669,0,0,0,0,0,0,0,0,-2.1449,-2.1457,-2.153,-2.1531,-2.1533,-2.1579,-2.1569,-2.1632,-2.1587,-2.1566,-2.1583,-2.1582,-2.1627,-2.1633,-2.1648,-2.1714,-2.1717,-2.1668,-2.167,-2.1672,-2.1673,0,0,0,0,0,0,0,-2.1444,-2.1454,-2.1551,-2.1531,-2.1532,-2.153,-2.1537,-2.1581,-2.1604,-2.1568,-2.1568,-2.1576,-2.1627,-2.1644,-2.165,-2.1718,-2.1668,-2.1671,-2.1674,-2.1676,-2.183,-2.1831,0,0,0,0,0,0,-2.1439,-2.1451,-2.1549,-2.1553,-2.1486,-2.1534,-2.1542,-2.1566,-2.1604,-2.1608,-2.1577,-2.1575,-2.1638,-2.1645,-2.1652,-2.1718,-2.1672,-2.1676,-2.1678,-2.1828,-2.183,-2.1832,0,0,0,0,0,0,-2.1436,-2.1448,-2.1546,-2.1502,-2.1514,-2.1538,-2.1565,-2.1568,-2.1585,-2.1611,-2.1614,-2.159,-2.1637,-2.1646,-2.1696,-2.1721,-2.1678,-2.1681,-2.1826,-2.1829,-2.1831,-2.1852,0,0,0,0,0,0,-2.1432,-2.1447,-2.1469,-2.1502,-2.1517,-2.159,-2.1566,-2.157,-2.1592,-2.159,-2.1624,-2.1628,-2.1637,-2.169,-2.17,-2.1725,-2.1685,-2.1824,-2.1827,-2.183,-2.185,-2.1855,-2.186,0,0,0,0,0,-2.1428,-2.1473,-2.147,-2.1482,-2.1545,-2.1592,-2.16,-2.1609,-2.1594,-2.1616,-2.1632,-2.1627,-2.1716,-2.1695,-2.1706,-2.1733,-2.1822,-2.1826,-2.183,-2.1847,-2.1854,-2.186,0,0,0,0,0,0,-2.1442,-2.1477,-2.1475,-2.1532,-2.1559,-2.159,-2.1619,-2.1617,-2.1648,-2.1645,-2.1655,-2.1663,-2.1712,-2.1728,-2.1703,-2.1788,-2.1767,-2.1773,-2.1776,-2.1783,-2.1788,-2.1784,-2.1688,0,0,0,0,0,-2.1451,-2.1487,-2.1516,-2.1564,-2.1577,-2.1595,-2.1616,-2.1621,-2.1649,-2.166,-2.168,-2.1707,-2.174,-2.1763,-2.1795,-2.1851,-2.1858,-2.1875,-2.1881,-2.1885,-2.189,-2.1919,-2.1927,-2.1844,-2.1844,-2.1844,0,0,-2.1472,-2.1496,-2.1518,-2.1567,-2.1588,-2.1624,-2.1605,-2.1644,-2.167,-2.1666,-2.1714,-2.1729,-2.1759,-2.1812,-2.1836,-2.1826,-2.1914,-2.189,-2.1893,-2.1896,-2.1924,-2.1932,-2.1939,-2.1847,-2.1846,-2.1846,0,0,-2.1528,-2.155,-2.1591,-2.1613,-2.1645,-2.1657,-2.1666,-2.1698,-2.1708,-2.1756,-2.1753,-2.1783,-2.1842,-2.1863,-2.1882,-2.1943,-2.1939,-2.1953,-2.1981,-2.2009,-2.2016,-2.2022,-2.2043,-2.205,-2.1958,-2.1958,-2.1958,0,-2.155,-2.1604,-2.1613,-2.1652,-2.1673,-2.167,-2.1711,-2.1731,-2.1773,-2.1787,-2.1775,-2.1847,-2.1867,-2.1924,-2.1939,-2.1954,-2.1965,-2.195,-2.2014,-2.202,-2.2026,-2.2046,-2.2054,-2.196,-2.1959,-2.1959,-2.1959,0,-2.1628,-2.1666,-2.1695,-2.1735,-2.1759,-2.1799,-2.1813,-2.1836,-2.1838,-2.185,-2.1898,-2.1922,-2.1959,-2.1972,-2.1975,-2.2029,-2.2022,-2.2012,-2.1992,-2.2035,-2.2054,-2.2062,-2.1962,-2.1961,-2.1961,-2.196,0,0,-2.1697,-2.1739,-2.175,-2.1767,-2.1801,-2.183,-2.1869,-2.1905,-2.1924,-2.1952,-2.1984,-2.2032,-2.2023,-2.2044,-2.2048,-2.2073,-2.2119,-2.206,-2.2061,-2.207,-2.2178,-2.2185,-2.2194,-2.2116,-2.2117,-2.2119,-2.2176,0,-2.1756,-2.1825,-2.1833,-2.1895,-2.1929,-2.1925,-2.1959,-2.1983,-2.1995,-2.2024,-2.2037,-2.2071,-2.2057,-2.2069,-2.2093,-2.2108,-2.2141,-2.2104,-2.2145,-2.2146,-2.2138,-2.2204,-2.2213,-2.2265,-2.2183,-2.2184,-2.2185,0,-2.1835,-2.1864,-2.1929,-2.1957,-2.1971,-2.2002,-2.2034,-2.2063,-2.2089,-2.2096,-2.2118,-2.2119,-2.2157,-2.2134,-2.2187,-2.2162,-2.2178,-2.2188,-2.219,-2.2195,-2.2169,-2.221,-2.2283,-2.229,-2.2197,-2.2196,-2.2195,0,-2.1877,-2.1933,-2.1979,-2.1994,-2.2027,-2.2048,-2.2063,-2.2088,-2.2108,-2.2136,-2.2149,-2.2181,-2.2199,-2.2223,-2.2232,-2.2215,-2.2284,-2.2262,-2.229,-2.2289,-2.2305,-2.2304,-2.2381,-2.2316,-2.2316,-2.2315,-2.2315,0,-2.1942,-2.1982,-2.1998,-2.2027,-2.207,-2.2078,-2.2121,-2.2134,-2.2156,-2.2186,-2.2184,-2.2212,-2.2222,-2.2251,-2.2258,-2.23,-2.2308,-2.2313,-2.2315,-2.2314,-2.2313,-2.2325,-2.2322,-2.2318,-2.2317,-2.2317,-2.2316,0,-2.1998,-2.2011,-2.206,-2.2087,-2.2095,-2.2126,-2.2149,-2.2175,-2.2186,-2.2223,-2.2232,-2.2249,-2.2283,-2.2294,-2.2335,-2.2339,-2.2388,-2.2386,-2.2379,-2.2379,-2.2406,-2.2404,-2.2494,-2.2506,-2.2433,-2.2434,-2.2434,0,-2.2039,-2.207,-2.21,-2.2119,-2.2135,-2.2167,-2.2188,-2.2196,-2.2217,-2.2248,-2.227,-2.2304,-2.2331,-2.2385,-2.24,-2.2431,-2.243,-2.2459,-2.2434,-2.2432,-2.243,-2.2428,-2.243,-2.2464,-2.2465,-2.2465,-2.2466,0,-2.2111,-2.2115,-2.2145,-2.2176,-2.2201,-2.2226,-2.225,-2.2266,-2.2278,-2.2301,-2.2336,-2.2357,-2.2398,-2.2431,-2.2462,-2.2476,-2.2473,-2.2473,-2.2481,-2.2481,-2.2475,-2.2478,-2.2392,-2.2471,-2.2471,-2.2471,-2.247,-2.247,-2.216,-2.2186,-2.2211,-2.2244,-2.2263,-2.2285,-2.2311,-2.2324,-2.2353,-2.2387,-2.239,-2.2427,-2.245,-2.2491,-2.2507,-2.2535,-2.2526,-2.2538,-2.2541,-2.2544,-2.2546,-2.247,-2.254,-2.254,-2.254,-2.254,-2.254,0,-2.2231,-2.2246,-2.2276,-2.231,-2.2335,-2.2329,-2.2355,-2.2377,-2.2409,-2.2431,-2.2458,-2.2497,-2.2528,-2.2545,-2.2576,-2.2595,-2.2594,-2.2603,-2.2601,-2.2604,-2.2552,-2.2542,-2.2603,-2.2603,-2.2603,-2.2603,-2.2603,-2.2603,-2.2271,-2.2314,-2.2321,-2.2373,-2.2388,-2.2424,-2.2439,-2.2459,-2.2477,-2.252,-2.2546,-2.2557,-2.2576,-2.2608,-2.2636,-2.264,-2.2651,-2.2661,-2.2664,-2.2615,-2.2608,-2.2602,-2.2593,-2.2663,-2.2663,-2.2714,-2.2714,-2.2715]}]]